[[{"header":{"parameterUnit":"m.s-1","parameterCategory":1,"la1":30.2991,"la2":30.254,"lo1":-89.0895,"lo2":-89.0444,"dx":0.0017,"dy":0.0017,"nx":28,"ny":28,"refTime":"2022-11-16T03:00:00:Z","depth":0,"parameterNumber":2,"parameterNumberName":"U-component_of_WINDS"},"data":[0,0,0,0,0,0,0,0,0,0,0,0,0,0,0,0,0,0,0,0,0,0,0,0,0,0,0,0,0,0,0,0,0,0,0,0,0,0,0,0,0,0,0,0,0,0,0,0,0,0,0,0,0,0,0,0,0,0,-0.7338,-0.7339,0,-0.7397,-0.7398,-0.7398,-0.7398,-0.7397,-0.7396,-0.7395,-0.7456,-0.7459,-0.7461,0,0,0,0,0,0,0,0,0,0,0,0,0,-0.7226,-0.7228,-0.7338,-0.7339,-0.734,-0.7397,-0.7398,-0.7399,-0.7398,-0.7397,-0.7396,-0.7395,-0.7455,-0.7458,-0.7461,0,0,0,0,0,0,0,0,0,0,0,0,0,-0.7279,-0.7229,-0.7338,-0.7346,-0.7348,-0.7397,-0.7398,-0.7399,-0.7398,-0.7397,-0.7396,-0.7394,-0.7455,-0.7458,-0.7461,-0.7507,0,0,-0.7472,-0.7474,0,0,0,0,0,0,0,0,-0.7276,-0.7283,-0.7344,-0.7346,-0.7347,-0.7389,-0.738,-0.7435,-0.7398,-0.7379,-0.7395,-0.7394,-0.7435,-0.744,-0.7453,-0.751,-0.7512,-0.7473,-0.7475,-0.7476,-0.7477,0,0,0,0,0,0,0,-0.7272,-0.728,-0.7362,-0.7345,-0.7347,-0.7347,-0.7353,-0.7391,-0.7413,-0.738,-0.7381,-0.7387,-0.7435,-0.745,-0.7455,-0.7513,-0.7472,-0.7476,-0.7478,-0.7479,-0.7609,-0.761,0,0,0,0,0,0,-0.7267,-0.7277,-0.736,-0.7363,-0.7308,-0.735,-0.7357,-0.7377,-0.7412,-0.7417,-0.7388,-0.7387,-0.7445,-0.7451,-0.7457,-0.7512,-0.7476,-0.7479,-0.7481,-0.7607,-0.7609,-0.761,0,0,0,0,0,0,-0.7264,-0.7274,-0.7357,-0.732,-0.7331,-0.7353,-0.7375,-0.7378,-0.7393,-0.7418,-0.7422,-0.7399,-0.7444,-0.7452,-0.7494,-0.7514,-0.7481,-0.7484,-0.7606,-0.7608,-0.761,-0.7623,0,0,0,0,0,0,-0.7261,-0.7273,-0.7291,-0.7321,-0.7333,-0.7394,-0.7377,-0.738,-0.7399,-0.7398,-0.743,-0.7434,-0.7444,-0.7489,-0.7498,-0.7519,-0.7487,-0.7604,-0.7607,-0.7609,-0.7621,-0.7626,-0.7629,0,0,0,0,0,-0.7257,-0.7293,-0.7292,-0.7302,-0.7355,-0.7395,-0.7402,-0.7412,-0.7401,-0.7419,-0.7435,-0.7433,-0.7511,-0.7493,-0.7503,-0.7526,-0.7603,-0.7606,-0.7609,-0.7619,-0.7625,-0.7629,0,0,0,0,0,0,-0.7265,-0.7297,-0.7296,-0.7342,-0.7366,-0.7395,-0.7418,-0.7418,-0.7445,-0.7443,-0.7455,-0.7462,-0.7504,-0.7519,-0.7499,-0.7571,-0.7555,-0.756,-0.756,-0.7565,-0.7569,-0.7565,-0.749,0,0,0,0,0,-0.7272,-0.7301,-0.7327,-0.7366,-0.7377,-0.7395,-0.7413,-0.7419,-0.7444,-0.7454,-0.7473,-0.7498,-0.7527,-0.7547,-0.7576,-0.7623,-0.763,-0.7643,-0.7647,-0.765,-0.7655,-0.768,-0.7687,-0.762,-0.762,-0.762,0,0,-0.7287,-0.7308,-0.7326,-0.7368,-0.7387,-0.7417,-0.7404,-0.7436,-0.7459,-0.7459,-0.75,-0.7515,-0.7543,-0.7587,-0.7608,-0.7601,-0.7674,-0.7654,-0.7656,-0.7659,-0.7684,-0.769,-0.7696,-0.7622,-0.7622,-0.7622,0,0,-0.733,-0.7349,-0.7382,-0.7401,-0.743,-0.7441,-0.7449,-0.7478,-0.7488,-0.7529,-0.7529,-0.7556,-0.7607,-0.7627,-0.7644,-0.7693,-0.7692,-0.7702,-0.7724,-0.7748,-0.7754,-0.7758,-0.7776,-0.7782,-0.7706,-0.7706,-0.7706,0,-0.7345,-0.7391,-0.74,-0.7433,-0.7451,-0.7451,-0.7486,-0.7504,-0.754,-0.7553,-0.7544,-0.7608,-0.7627,-0.7676,-0.7688,-0.7702,-0.7711,-0.7699,-0.7752,-0.7757,-0.7761,-0.7778,-0.7785,-0.7707,-0.7707,-0.7707,-0.7707,0,-0.7408,-0.7439,-0.7463,-0.7498,-0.7519,-0.7552,-0.7567,-0.7587,-0.759,-0.7602,-0.7644,-0.7666,-0.77,-0.7712,-0.7716,-0.7761,-0.7756,-0.7749,-0.7734,-0.7769,-0.7785,-0.7791,-0.7709,-0.7708,-0.7708,-0.7708,0,0,-0.7459,-0.7498,-0.7506,-0.7522,-0.7553,-0.7577,-0.761,-0.7642,-0.7659,-0.7684,-0.7712,-0.7755,-0.7749,-0.7768,-0.7774,-0.7796,-0.7833,-0.7786,-0.7787,-0.7795,-0.7884,-0.7889,-0.7897,-0.7832,-0.7833,-0.7834,-0.7882,0,-0.7506,-0.7564,-0.7573,-0.7625,-0.7654,-0.7654,-0.7682,-0.7704,-0.7716,-0.7743,-0.7756,-0.7786,-0.7776,-0.7787,-0.7809,-0.7824,-0.7851,-0.782,-0.7859,-0.786,-0.7852,-0.7905,-0.7911,-0.7955,-0.7888,-0.7889,-0.789,0,-0.7568,-0.7594,-0.7649,-0.7675,-0.7687,-0.7713,-0.7743,-0.7768,-0.7792,-0.7799,-0.782,-0.7823,-0.7857,-0.784,-0.7887,-0.7865,-0.7881,-0.7891,-0.7893,-0.7898,-0.7878,-0.7912,-0.7969,-0.7976,-0.79,-0.7899,-0.7899,0,-0.76,-0.7649,-0.7687,-0.7701,-0.7732,-0.775,-0.7764,-0.7788,-0.7806,-0.7832,-0.7844,-0.7873,-0.789,-0.7912,-0.7923,-0.791,-0.797,-0.7953,-0.7977,-0.7976,-0.799,-0.7989,-0.8052,-0.7999,-0.7999,-0.7999,-0.7999,0,-0.7652,-0.7685,-0.7702,-0.7726,-0.7763,-0.7773,-0.7809,-0.7823,-0.7843,-0.787,-0.7871,-0.7896,-0.7909,-0.7935,-0.7944,-0.7982,-0.7989,-0.7996,-0.7998,-0.7996,-0.7995,-0.8007,-0.8005,-0.8001,-0.8,-0.8,-0.8,0,-0.7694,-0.7707,-0.7749,-0.7775,-0.7783,-0.7809,-0.7831,-0.7854,-0.7865,-0.7899,-0.7907,-0.7925,-0.7956,-0.7969,-0.8008,-0.8013,-0.8056,-0.8056,-0.8048,-0.8049,-0.8072,-0.807,-0.8145,-0.8155,-0.8095,-0.8096,-0.8096,0,-0.7727,-0.7752,-0.7781,-0.7799,-0.7813,-0.7841,-0.786,-0.787,-0.7889,-0.7918,-0.7938,-0.7969,-0.7995,-0.8044,-0.8061,-0.809,-0.809,-0.8115,-0.8095,-0.8092,-0.8091,-0.809,-0.8092,-0.8119,-0.8119,-0.812,-0.812,0,-0.7783,-0.7788,-0.7815,-0.7843,-0.7865,-0.7889,-0.7911,-0.7925,-0.7939,-0.796,-0.7992,-0.8012,-0.805,-0.8081,-0.8111,-0.8125,-0.8125,-0.8126,-0.8133,-0.8132,-0.8127,-0.813,-0.8059,-0.8124,-0.8124,-0.8124,-0.8123,-0.8123,-0.7822,-0.7845,-0.7868,-0.7898,-0.7915,-0.7936,-0.7959,-0.7973,-0.7999,-0.8031,-0.8035,-0.8069,-0.8092,-0.8132,-0.8148,-0.8174,-0.8168,-0.8178,-0.8181,-0.8184,-0.8185,-0.8121,-0.818,-0.818,-0.818,-0.818,-0.8179,0,-0.7879,-0.7894,-0.792,-0.7952,-0.7975,-0.7972,-0.7996,-0.8016,-0.8045,-0.8067,-0.8092,-0.8128,-0.8157,-0.8175,-0.8205,-0.8223,-0.8223,-0.823,-0.823,-0.8233,-0.8189,-0.818,-0.8229,-0.8229,-0.8229,-0.8229,-0.8229,-0.8229,-0.7911,-0.7949,-0.7956,-0.8003,-0.8017,-0.8051,-0.8065,-0.8084,-0.8101,-0.8141,-0.8166,-0.8177,-0.8197,-0.8228,-0.8255,-0.8259,-0.827,-0.8278,-0.8282,-0.8241,-0.8236,-0.8231,-0.8223,-0.828,-0.828,-0.8324,-0.8324,-0.8324]},{"header":{"parameterUnit":"m.s-1","parameterCategory":1,"la1":30.2991,"la2":30.254,"lo1":-89.0895,"lo2":-89.0444,"dx":0.0017,"dy":0.0017,"nx":28,"ny":28,"refTime":"2022-11-16T03:00:00:Z","depth":0,"parameterNumber":3,"parameterNumberName":"V-component_of_WINDS"},"data":[0,0,0,0,0,0,0,0,0,0,0,0,0,0,0,0,0,0,0,0,0,0,0,0,0,0,0,0,0,0,0,0,0,0,0,0,0,0,0,0,0,0,0,0,0,0,0,0,0,0,0,0,0,0,0,0,0,0,-6.2103,-6.2104,0,-6.2191,-6.2192,-6.2193,-6.2149,-6.2147,-6.2145,-6.2142,-6.2227,-6.2231,-6.2236,0,0,0,0,0,0,0,0,0,0,0,0,0,-6.1892,-6.1896,-6.2103,-6.2104,-6.2105,-6.219,-6.2192,-6.2193,-6.2149,-6.2147,-6.2144,-6.2141,-6.2226,-6.2231,-6.2236,0,0,0,0,0,0,0,0,0,0,0,0,0,-6.1982,-6.1898,-6.2103,-6.2094,-6.2094,-6.219,-6.2192,-6.2193,-6.215,-6.2147,-6.2143,-6.214,-6.2224,-6.223,-6.2237,-6.2345,0,0,-6.2257,-6.226,0,0,0,0,0,0,0,0,-6.1977,-6.199,-6.2094,-6.2095,-6.2095,-6.2156,-6.2148,-6.2244,-6.2151,-6.2129,-6.2142,-6.2138,-6.2206,-6.2213,-6.2237,-6.2349,-6.2353,-6.2257,-6.2261,-6.2264,-6.2266,0,0,0,0,0,0,0,-6.1971,-6.1986,-6.2137,-6.2095,-6.2096,-6.2084,-6.2093,-6.2166,-6.2185,-6.213,-6.2127,-6.2139,-6.2205,-6.2231,-6.2239,-6.2354,-6.2257,-6.2263,-6.2267,-6.227,-6.2559,-6.2563,0,0,0,0,0,0,-6.1966,-6.1981,-6.2134,-6.214,-6.2027,-6.209,-6.21,-6.2139,-6.2184,-6.2188,-6.2141,-6.2136,-6.2222,-6.2231,-6.2242,-6.2372,-6.2264,-6.227,-6.2274,-6.2556,-6.256,-6.2564,0,0,0,0,0,0,-6.1961,-6.198,-6.2131,-6.206,-6.2078,-6.2098,-6.2142,-6.2143,-6.2169,-6.2193,-6.2195,-6.2165,-6.2219,-6.2232,-6.232,-6.2374,-6.2273,-6.2279,-6.2551,-6.2557,-6.2562,-6.2633,0,0,0,0,0,0,-6.1956,-6.1979,-6.2021,-6.2061,-6.2082,-6.221,-6.2145,-6.2147,-6.2181,-6.2175,-6.2215,-6.2219,-6.2218,-6.2311,-6.2327,-6.2382,-6.2284,-6.2546,-6.2554,-6.256,-6.2626,-6.2641,-6.2653,0,0,0,0,0,-6.1948,-6.2037,-6.2024,-6.2042,-6.2136,-6.2213,-6.2225,-6.2224,-6.2185,-6.2228,-6.2243,-6.2217,-6.2366,-6.232,-6.2338,-6.2395,-6.2543,-6.2552,-6.256,-6.262,-6.2638,-6.2653,0,0,0,0,0,0,-6.2,-6.2042,-6.2028,-6.2132,-6.217,-6.2206,-6.2259,-6.2242,-6.229,-6.2282,-6.2277,-6.2286,-6.2377,-6.2395,-6.2343,-6.2503,-6.2448,-6.2461,-6.2488,-6.2505,-6.2518,-6.2512,-6.229,0,0,0,0,0,-6.2025,-6.2085,-6.2117,-6.2206,-6.2226,-6.2239,-6.2273,-6.2269,-6.2307,-6.2322,-6.2343,-6.238,-6.2434,-6.247,-6.2522,-6.2628,-6.2636,-6.2677,-6.269,-6.2701,-6.2712,-6.2769,-6.2787,-6.2592,-6.2592,-6.2592,0,0,-6.2074,-6.2104,-6.2142,-6.2217,-6.2246,-6.2308,-6.2253,-6.232,-6.2365,-6.2331,-6.2416,-6.2433,-6.2473,-6.2571,-6.2615,-6.2588,-6.2767,-6.2712,-6.272,-6.2725,-6.278,-6.2798,-6.2815,-6.2598,-6.2597,-6.2596,0,0,-6.2196,-6.2225,-6.2303,-6.2333,-6.2378,-6.2386,-6.2405,-6.2444,-6.2455,-6.254,-6.2516,-6.2568,-6.2663,-6.2693,-6.272,-6.2854,-6.2832,-6.2871,-6.2941,-6.2997,-6.3013,-6.3026,-6.3074,-6.3091,-6.2882,-6.2882,-6.2882,0,-6.2251,-6.2345,-6.2344,-6.2414,-6.2447,-6.2421,-6.2499,-6.2528,-6.2586,-6.2609,-6.2579,-6.2698,-6.2723,-6.2827,-6.286,-6.2883,-6.2903,-6.2866,-6.3011,-6.3024,-6.3037,-6.3083,-6.3101,-6.2886,-6.2886,-6.2885,-6.2885,0,-6.2411,-6.2477,-6.2533,-6.2593,-6.2633,-6.2706,-6.2715,-6.2755,-6.2747,-6.2758,-6.2845,-6.2874,-6.2932,-6.2956,-6.2948,-6.306,-6.3042,-6.3011,-6.2957,-6.306,-6.3103,-6.312,-6.2893,-6.2891,-6.289,-6.2889,0,0,-6.2569,-6.2628,-6.2649,-6.2676,-6.2723,-6.2773,-6.2844,-6.2903,-6.2937,-6.2978,-6.3037,-6.3118,-6.3091,-6.3122,-6.3117,-6.3167,-6.3271,-6.313,-6.3131,-6.3155,-6.3395,-6.3418,-6.3438,-6.3257,-6.326,-6.3263,-6.3392,0,-6.2694,-6.2822,-6.2823,-6.294,-6.3,-6.2977,-6.3039,-6.3074,-6.3086,-6.3138,-6.315,-6.3208,-6.3167,-6.3186,-6.3234,-6.3248,-6.3319,-6.3239,-6.3311,-6.3313,-6.3302,-6.346,-6.3485,-6.3605,-6.3408,-6.3411,-6.3413,0,-6.2858,-6.2907,-6.3031,-6.3071,-6.3096,-6.3152,-6.3206,-6.3255,-6.3294,-6.3299,-6.3335,-6.3323,-6.3394,-6.3338,-6.3436,-6.3381,-6.341,-6.3422,-6.3427,-6.3433,-6.337,-6.3471,-6.3643,-6.3662,-6.3439,-6.3437,-6.3435,0,-6.2961,-6.3057,-6.3144,-6.3168,-6.3216,-6.3256,-6.3278,-6.3314,-6.3349,-6.3395,-6.3417,-6.347,-6.3499,-6.3539,-6.3541,-6.35,-6.364,-6.3583,-6.3646,-6.3646,-6.3676,-6.3674,-6.3856,-6.3695,-6.3695,-6.3694,-6.3694,0,-6.3102,-6.3178,-6.3191,-6.3245,-6.333,-6.3329,-6.3413,-6.343,-6.3462,-6.3518,-6.3499,-6.3551,-6.355,-6.3602,-6.3604,-6.3685,-6.3698,-6.3703,-6.3703,-6.3705,-6.3705,-6.3724,-6.3716,-6.3699,-6.3698,-6.3697,-6.3696,0,-6.3231,-6.3243,-6.3336,-6.3375,-6.3386,-6.3447,-6.3479,-6.3529,-6.354,-6.361,-6.3626,-6.3642,-6.3703,-6.3709,-6.3779,-6.378,-6.3878,-6.3868,-6.3865,-6.3864,-6.3926,-6.392,-6.4126,-6.4153,-6.3975,-6.3977,-6.3978,0,-6.332,-6.3379,-6.3424,-6.3461,-6.3486,-6.3545,-6.3581,-6.3582,-6.362,-6.3669,-6.3713,-6.3773,-6.382,-6.3918,-6.3935,-6.3988,-6.3979,-6.4048,-6.3987,-6.3988,-6.3981,-6.3977,-6.3983,-6.406,-6.4062,-6.4063,-6.4065,0,-6.3477,-6.348,-6.3534,-6.3591,-6.3635,-6.3679,-6.372,-6.375,-6.3757,-6.38,-6.3863,-6.39,-6.3972,-6.4031,-6.4083,-6.4103,-6.4085,-6.4084,-6.4101,-6.4104,-6.41,-6.4103,-6.3898,-6.4079,-6.4077,-6.4076,-6.4076,-6.4075,-6.3589,-6.3641,-6.3681,-6.3742,-6.3773,-6.3812,-6.3862,-6.3879,-6.3933,-6.3993,-6.399,-6.4059,-6.4096,-6.4165,-6.4189,-6.4242,-6.4218,-6.4243,-6.425,-6.4256,-6.4263,-6.4092,-6.4251,-6.4251,-6.425,-6.425,-6.425,0,-6.3745,-6.3771,-6.3827,-6.3886,-6.3933,-6.3914,-6.3958,-6.3999,-6.4061,-6.4098,-6.4145,-6.4217,-6.4274,-6.4296,-6.4351,-6.4389,-6.4382,-6.4404,-6.4401,-6.4406,-6.428,-6.426,-6.4409,-6.4409,-6.4409,-6.4409,-6.4409,-6.4409,-6.3832,-6.3919,-6.3927,-6.4028,-6.4052,-6.4121,-6.4148,-6.4184,-6.4213,-6.4295,-6.4343,-6.4358,-6.4388,-6.4446,-6.4497,-6.4501,-6.4522,-6.4548,-6.4549,-6.4431,-6.4415,-6.4399,-6.4381,-6.4552,-6.4553,-6.467,-6.4672,-6.4672]}]]